GEFSMA_con_cape1000_234.txt.gz
Probability
6 3 3 0 0 6 6 6 3 3 0 0 0 3 0 0 3 3 13 58 71 65 61 52 52 52 48 42 42 48 52 42 48 48 42 35 29 29 19 13 16 16 19
6 6 6 10 6 3 6 10 10 6 6 10 3 0 3 0 0 0 3 35 71 74 65 55 48 45 45 48 45 42 42 45 55 52 39 35 35 35 19 23 19 26 23
16 10 10 10 6 6 10 10 6 6 10 10 10 10 6 0 0 0 0 6 26 68 71 68 58 55 45 48 48 48 42 48 48 42 35 35 35 39 35 32 26 29 26
23 6 13 13 6 10 13 6 6 6 6 6 6 10 10 0 3 0 0 0 3 10 48 68 61 58 55 48 42 55 48 48 48 45 35 32 29 26 32 26 29 29 26
29 16 19 10 6 10 13 6 6 6 6 6 6 10 3 3 6 3 0 0 0 3 3 32 61 65 58 58 52 52 48 45 42 35 32 29 29 29 26 19 23 19 23
29 23 23 16 13 6 10 10 6 6 6 6 6 10 3 6 6 0 3 3 3 3 0 0 26 42 55 65 61 52 55 45 42 35 32 32 26 26 29 23 23 16 16
32 29 35 19 23 16 19 10 6 10 13 6 3 3 0 0 3 6 3 3 3 6 3 3 10 13 19 48 55 52 55 55 52 45 45 29 29 29 35 26 19 19 13
35 35 26 35 29 19 19 19 16 16 13 13 10 6 0 0 0 3 3 0 0 0 6 6 3 10 6 13 16 45 48 52 48 48 52 48 39 32 29 29 29 19 13
39 42 29 32 29 26 26 29 26 23 19 19 16 3 0 0 0 0 0 0 0 0 0 3 3 3 6 6 6 16 42 45 48 48 55 52 42 42 35 32 32 26 19
55 58 52 35 32 26 29 32 35 26 19 26 23 13 3 0 0 0 0 0 0 0 0 0 3 3 3 3 6 3 13 23 32 52 45 42 39 32 26 32 29 29 23
48 61 52 35 35 32 23 35 35 29 26 29 29 23 13 3 0 0 0 0 0 0 0 0 0 0 0 3 3 3 6 6 13 26 32 29 32 32 29 23 26 19 19
42 52 52 45 45 39 42 39 35 35 35 29 23 23 16 16 10 0 3 3 0 0 0 3 3 0 3 3 6 3 3 3 3 3 13 19 19 19 23 23 19 16 16
45 52 58 42 42 45 42 35 45 35 32 26 23 16 19 13 10 3 3 3 0 0 0 0 3 0 3 3 3 6 6 3 3 0 0 0 10 16 16 16 16 10 13
48 45 39 39 42 42 35 35 35 32 29 23 23 16 13 13 10 3 6 3 3 3 0 0 0 3 3 6 0 0 0 0 0 0 0 0 0 0 0 3 6 6 6
52 45 39 39 42 35 42 32 29 29 23 23 19 19 16 16 13 13 6 3 3 3 0 0 0 3 3 3 3 3 0 0 0 0 0 0 0 0 0 0 0 0 0
42 45 35 35 42 45 35 32 29 23 19 19 19 19 16 19 16 10 3 3 0 0 3 0 0 0 3 6 3 3 3 3 3 0 0 0 0 0 0 0 0 0 0
42 42 42 39 35 35 39 35 32 23 19 19 19 23 19 16 13 10 6 6 0 0 0 0 0 0 3 3 3 3 3 3 0 0 0 0 0 0 0 0 0 0 0
48 45 42 39 35 35 35 29 29 26 26 19 23 23 19 16 19 6 10 10 13 3 3 6 3 3 3 3 0 0 0 3 0 0 0 0 0 0 0 0 0 0 0
45 45 39 42 39 35 32 29 23 26 26 29 29 29 23 19 16 10 10 10 13 13 10 10 10 3 3 6 3 3 3 0 0 0 0 0 0 0 0 0 0 0 0
45 42 45 45 45 35 39 32 32 23 29 29 29 29 23 19 13 10 3 6 10 10 6 6 6 3 3 3 3 3 0 0 0 0 0 0 0 0 0 0 0 0 0
42 48 48 48 42 42 42 42 35 35 29 29 29 29 26 16 13 13 10 6 6 3 3 3 3 0 0 0 0 0 0 0 0 0 0 0 0 0 0 0 0 0 0
42 39 42 39 39 42 35 39 35 35 35 29 29 26 16 13 10 10 3 3 3 3 3 3 3 3 0 0 0 0 0 0 0 0 0 0 0 0 0 0 0 0 0
39 35 32 32 32 32 29 26 23 26 26 29 29 19 19 13 13 10 6 6 0 0 3 3 3 3 3 0 0 0 0 0 0 0 0 0 0 0 0 0 0 0 0
29 29 26 29 26 29 23 16 13 16 13 13 13 16 16 10 6 6 6 6 3 3 0 3 3 3 3 0 0 0 0 0 0 0 0 0 0 0 0 0 0 0 0
29 26 29 26 26 19 16 13 10 13 13 13 13 16 16 6 6 6 6 6 3 3 3 3 3 3 3 3 0 0 0 0 0 0 0 0 0 0 0 0 0 0 0
29 26 23 23 23 19 16 13 10 6 10 13 16 16 10 6 6 3 6 6 6 6 6 3 0 0 0 0 0 0 0 0 0 0 0 0 0 0 0 0 0 0 0

GEFSMA_con_cape1000_240.txt.gz
Probability
0 0 0 0 3 3 3 0 0 3 6 3 3 3 3 0 0 6 10 19 61 68 52 55 45 42 48 42 39 35 29 26 26 29 26 19 16 16 16 16 19 19 13
0 0 0 0 3 3 3 0 0 3 0 6 10 10 3 0 6 3 6 19 48 61 55 52 45 48 42 45 39 42 29 26 26 35 29 29 19 19 16 13 16 23 23
0 0 0 0 0 0 0 0 0 3 6 6 10 10 10 10 6 3 6 13 23 39 55 42 48 45 48 35 42 45 39 39 39 42 39 42 35 35 29 23 23 19 26
0 0 3 0 0 0 6 6 6 6 6 10 6 6 10 6 3 0 3 6 13 19 35 45 55 55 45 39 39 42 39 39 39 29 32 26 29 35 32 26 23 19 19
10 3 3 0 3 3 6 6 6 6 6 10 10 10 6 0 3 0 0 0 0 3 16 26 42 42 39 42 42 42 42 42 35 29 26 19 19 26 26 19 16 13 10
19 10 3 3 3 6 6 6 6 6 10 6 6 6 6 3 3 3 0 0 0 0 0 0 19 39 45 45 52 48 52 42 42 32 19 23 23 23 29 19 16 13 6
23 13 13 6 3 6 6 10 6 6 6 3 6 3 0 0 3 3 3 6 6 3 0 0 3 3 29 35 45 48 48 52 45 39 39 32 19 19 23 19 16 13 6
26 23 13 10 10 6 6 13 6 6 10 16 10 3 0 0 0 0 3 6 6 6 6 3 6 3 0 10 13 23 42 45 42 39 48 45 32 29 26 29 19 13 3
29 29 19 19 16 16 19 16 16 13 16 13 13 6 0 0 0 0 0 3 3 3 3 3 3 3 3 3 3 3 23 29 42 39 35 32 29 29 23 13 19 16 10
29 26 23 19 19 16 16 19 29 19 13 19 19 13 3 3 3 3 0 0 0 3 3 0 3 3 3 6 6 3 6 6 16 29 35 29 29 29 19 16 16 13 6
26 32 32 23 19 16 19 16 26 23 16 19 23 19 6 3 0 3 3 3 3 6 0 0 0 3 6 3 6 6 3 3 3 6 23 32 26 23 26 23 13 13 10
19 26 42 23 23 23 29 29 26 23 23 19 23 16 16 13 13 0 3 3 3 3 3 3 6 6 6 10 0 0 3 3 0 0 0 10 16 16 16 19 16 13 13
19 26 29 26 19 23 26 26 26 23 23 19 19 19 13 10 10 6 3 3 3 3 3 6 6 10 6 3 3 0 0 0 0 0 0 0 0 6 13 13 13 16 10
26 26 29 26 26 19 23 23 23 23 19 23 19 19 16 13 10 10 6 6 6 3 3 3 3 3 3 3 3 0 3 0 0 0 0 0 0 0 0 0 3 3 10
26 19 23 26 23 19 16 16 19 19 23 19 19 19 19 16 13 10 6 6 10 10 10 3 3 6 3 3 3 6 6 0 0 0 0 0 0 0 0 0 0 0 0
23 26 23 23 19 23 23 16 19 19 19 19 19 19 19 16 13 13 10 3 3 6 10 10 6 0 3 3 3 3 3 0 0 0 0 0 0 0 0 0 0 0 0
26 26 23 26 26 29 26 16 19 16 16 16 16 16 19 16 16 10 6 6 6 3 10 10 3 0 3 6 6 6 3 3 0 0 0 0 0 0 0 0 0 0 0
32 29 26 26 29 29 29 26 23 16 16 16 13 16 16 16 16 13 6 6 6 6 6 10 6 3 6 6 6 6 3 3 3 0 0 0 0 0 0 0 0 0 0
26 26 23 29 32 29 29 29 23 19 16 16 16 16 19 23 16 16 10 6 6 3 6 6 10 3 3 3 3 0 0 0 0 0 0 0 0 0 0 0 0 0 0
26 26 29 26 29 29 26 26 26 23 23 16 16 16 19 16 13 13 10 10 6 3 6 6 6 3 3 0 0 3 0 0 0 0 0 0 0 0 0 0 0 0 0
32 29 29 32 29 23 23 26 26 26 26 26 16 19 19 13 10 13 13 10 6 3 6 6 6 6 3 0 3 0 0 0 0 0 0 0 0 0 0 0 0 0 0
35 35 35 32 26 29 19 3 6 26 26 19 26 26 23 19 10 6 3 3 0 6 10 6 6 6 3 3 3 0 0 0 0 0 0 0 0 0 0 0 0 0 0
32 32 32 32 29 19 6 6 3 10 26 16 16 19 19 16 10 10 6 3 3 0 0 6 6 6 6 3 3 0 0 0 0 0 0 0 0 0 0 0 0 0 0
29 29 29 26 23 16 6 3 3 3 13 13 16 19 13 19 6 6 6 6 6 3 3 0 3 3 3 3 3 3 3 0 0 0 0 0 0 0 0 0 0 0 0
29 29 23 19 19 16 10 3 3 3 13 13 13 13 13 16 10 0 3 6 6 3 3 0 0 3 0 0 3 3 3 0 0 0 0 0 0 0 0 0 0 0 0
26 19 19 23 19 19 10 3 0 10 13 16 16 13 13 10 6 0 0 3 6 3 3 3 3 0 0 0 0 3 3 3 3 0 0 0 0 0 0 0 0 0 0

GEFSMA_con_cape1000_246.txt.gz
Probability
48 52 65 65 48 55 55 61 48 52 42 32 26 19 16 19 16 23 39 45 52 55 42 35 42 35 39 35 32 35 26 19 32 32 32 26 26 26 19 23 13 16 16
48 52 68 68 55 55 52 58 48 48 45 45 29 26 29 16 26 19 26 48 48 52 39 39 35 39 32 29 23 26 26 32 32 29 26 23 19 16 16 13 10 6 13
61 58 48 52 55 52 65 68 52 45 55 45 39 39 39 35 35 42 26 52 55 39 52 35 35 32 39 35 32 29 26 29 35 26 32 26 26 19 16 16 16 16 10
61 74 55 52 61 52 45 55 58 48 48 52 58 45 45 45 42 45 48 48 58 48 55 39 39 32 32 35 39 39 35 32 42 32 35 29 26 26 23 19 19 19 26
65 65 77 68 65 48 48 39 52 58 65 58 45 55 45 52 52 45 42 48 48 55 55 45 39 42 32 26 35 29 39 42 42 35 26 26 23 29 29 23 23 19 19
61 55 58 74 68 61 68 61 74 77 74 65 35 48 52 52 55 61 48 42 48 39 32 42 39 32 29 35 42 35 32 42 32 35 23 19 19 23 23 19 16 16 16
61 55 48 74 74 71 77 68 65 65 65 68 61 55 42 42 58 61 58 45 45 39 35 45 52 45 39 29 32 35 42 42 42 39 35 32 23 29 29 26 19 16 16
55 52 65 61 71 81 81 77 81 71 65 61 65 61 39 52 61 23 45 48 35 42 42 26 42 42 42 35 29 29 29 39 35 39 32 32 29 29 29 26 29 26 26
68 71 65 65 68 68 74 81 84 77 71 61 55 48 45 23 29 29 35 29 39 39 39 42 42 42 48 45 45 23 26 29 32 32 29 29 32 29 26 26 26 23 13
71 71 71 71 68 71 71 71 74 74 81 71 61 71 52 45 45 35 35 39 35 55 39 29 29 39 42 42 39 10 19 10 19 23 23 23 32 23 26 23 23 23 13
68 68 71 77 77 77 77 74 77 81 68 65 71 61 58 58 32 35 26 29 35 35 42 39 32 39 39 42 48 19 10 3 3 13 19 23 26 23 26 19 19 16 13
61 55 52 68 74 74 77 77 77 74 84 84 74 68 55 48 45 45 52 42 39 32 35 45 42 35 39 32 26 10 6 0 0 0 3 13 16 19 23 23 16 13 13
48 61 52 65 65 68 71 71 74 74 71 71 71 68 52 48 48 55 58 48 45 29 42 35 35 35 19 26 35 6 6 3 0 0 0 0 3 3 13 16 13 13 13
52 61 61 61 61 65 65 68 68 61 71 74 52 61 61 52 48 48 52 48 45 26 32 26 32 29 32 32 6 3 16 3 0 0 0 0 0 0 0 0 6 6 13
52 52 52 58 55 58 65 61 52 61 65 61 55 55 58 55 45 48 55 55 55 55 35 29 29 32 32 29 6 16 29 3 0 0 0 0 0 0 0 0 0 0 3
65 58 55 58 68 68 65 65 55 61 65 65 61 58 58 45 45 48 42 45 52 52 32 19 29 32 32 16 10 23 26 6 3 0 0 0 0 0 0 0 0 0 0
58 58 52 52 61 61 61 61 45 55 55 52 48 55 52 55 48 45 48 48 52 48 35 35 29 35 29 23 19 23 26 19 10 0 0 0 0 0 0 0 0 0 0
58 58 55 55 61 61 61 58 52 52 52 45 48 45 45 45 52 45 52 48 48 48 42 42 39 35 23 23 23 23 19 10 13 0 0 0 0 0 0 0 0 0 0
58 58 55 58 58 58 58 58 55 52 45 42 39 42 39 42 45 42 48 45 39 26 32 32 32 26 16 16 19 19 16 16 16 0 0 0 0 0 0 0 0 0 0
48 52 52 55 55 52 48 48 48 45 45 45 45 42 42 45 45 45 39 39 39 35 29 26 26 26 16 16 19 19 13 13 13 0 0 0 0 0 0 0 0 0 0
45 48 48 45 45 42 42 42 52 42 42 42 42 42 32 32 32 29 32 32 29 29 32 29 26 26 19 19 19 19 13 16 16 13 16 6 3 0 0 0 0 0 0
48 48 45 45 45 39 26 16 32 39 45 45 45 42 35 29 19 10 10 6 13 29 29 29 26 19 26 23 19 16 16 16 16 16 16 13 6 0 3 3 0 0 0
48 48 42 39 39 39 23 3 6 32 39 45 45 45 29 19 23 23 19 6 6 3 3 29 29 19 19 16 16 16 19 16 16 19 13 13 13 10 6 0 0 0 0
45 45 45 39 39 39 16 6 3 26 32 39 39 39 35 29 23 23 29 29 23 16 6 10 23 16 13 19 19 10 10 10 10 13 10 10 10 6 3 6 0 0 0
35 35 35 42 42 35 10 0 0 32 32 32 32 26 32 32 19 10 19 29 23 23 0 0 0 0 0 0 3 10 13 10 13 10 13 10 10 6 10 10 0 0 0
35 35 35 35 35 32 10 3 0 35 32 29 32 23 16 16 16 3 16 23 23 23 16 6 0 0 0 0 0 3 10 13 13 13 10 6 6 3 3 6 6 0 0

GEFSMA_con_cape1000_252.txt.gz
Probability
74 68 71 65 65 61 71 77 71 71 71 58 58 45 39 35 35 35 26 61 71 65 65 52 55 52 42 32 35 39 35 19 23 29 26 29 26 19 16 16 23 23 23
74 74 77 74 65 81 71 71 71 77 81 77 68 58 55 45 42 39 39 45 71 74 68 61 55 48 39 39 39 39 32 29 35 39 42 39 29 32 29 26 19 23 19
84 77 71 77 77 77 77 77 77 77 77 65 65 61 58 58 45 48 39 48 45 71 71 68 52 48 48 45 55 42 45 48 48 45 45 52 45 35 26 23 19 13 23
81 81 77 74 77 77 81 81 77 74 74 77 74 71 68 74 61 52 42 48 45 45 48 61 65 55 55 42 45 35 39 42 42 39 39 35 35 39 29 23 23 23 16
77 77 74 74 74 84 87 61 74 74 77 77 65 61 58 68 71 55 65 55 48 65 45 52 71 52 45 42 39 29 29 32 32 35 32 32 32 35 29 19 23 19 13
71 74 81 77 74 77 87 84 87 81 74 74 48 48 58 71 68 58 61 55 58 55 42 39 35 39 55 52 55 35 29 32 35 26 23 23 23 32 23 23 16 13 13
74 81 74 81 77 71 71 77 74 74 77 71 65 55 68 61 58 61 61 48 39 42 42 45 35 32 23 45 39 42 39 35 32 29 29 26 23 23 26 19 13 10 10
74 65 81 77 77 81 81 84 84 77 65 65 71 65 52 55 42 39 52 52 42 45 45 35 35 39 32 16 6 32 42 35 32 32 32 32 32 26 16 16 16 10 6
71 77 77 77 81 77 81 84 77 74 74 74 77 71 55 45 52 52 45 39 48 45 39 42 42 45 35 23 19 19 32 39 35 35 35 32 29 26 23 16 19 16 10
77 77 77 77 87 87 87 77 81 74 68 71 71 71 68 58 52 52 58 58 58 55 55 26 32 35 35 35 32 13 13 13 26 32 35 35 35 29 19 19 16 13 10
77 71 74 74 77 81 77 74 81 84 77 71 65 68 65 61 55 55 39 48 52 48 45 55 48 32 29 29 26 13 6 6 6 19 26 29 29 26 19 19 16 19 16
77 77 74 74 77 81 74 74 74 74 77 77 77 74 65 55 58 55 48 45 45 48 42 45 39 35 29 26 26 16 3 3 0 3 10 13 23 23 26 19 19 19 19
77 77 71 74 77 77 77 71 77 74 74 74 71 74 71 68 68 61 55 52 45 39 35 42 39 35 23 19 23 16 3 3 3 0 0 3 6 10 16 16 16 19 19
74 77 74 77 81 77 68 77 74 74 68 71 71 71 74 71 71 58 55 42 39 35 32 29 26 19 26 26 16 6 6 3 3 0 0 0 0 0 0 0 3 13 16
77 74 77 77 81 77 77 81 74 74 68 71 71 68 74 71 71 65 61 48 42 35 29 29 29 32 32 19 10 3 13 3 3 0 0 0 0 0 0 0 0 0 0
81 81 77 77 71 68 71 68 68 77 74 71 68 71 71 65 68 65 61 65 48 45 35 32 35 23 29 16 3 23 23 6 0 0 0 0 0 0 0 0 0 0 0
77 74 68 68 68 68 71 68 65 65 71 68 74 65 68 61 58 52 48 52 52 48 39 35 35 29 29 23 10 16 19 13 6 0 0 0 0 0 0 0 0 0 0
68 71 68 65 65 65 71 68 65 61 65 65 68 68 61 55 58 48 48 48 48 48 39 32 32 26 26 23 13 16 13 13 10 3 0 0 0 0 0 0 0 0 0
65 58 65 61 65 58 55 61 58 61 65 68 65 61 58 55 52 52 45 45 45 32 35 29 26 29 23 16 16 16 16 16 10 6 0 0 0 0 0 0 0 0 0
61 61 61 65 55 52 48 45 52 55 58 58 55 52 55 52 48 45 39 42 35 32 26 26 23 23 19 19 16 16 16 16 16 6 3 0 0 0 0 0 0 0 0
55 55 55 52 52 48 42 42 52 48 52 58 48 48 32 29 29 32 29 32 35 32 26 26 23 23 16 19 16 16 10 13 16 10 6 3 0 0 0 0 0 0 0
55 55 45 45 45 32 26 23 29 42 52 48 45 39 29 26 26 13 6 16 16 23 26 26 23 23 23 13 16 10 13 13 13 16 13 6 6 3 0 0 0 0 0
52 52 42 42 39 29 26 23 16 29 52 52 45 45 29 26 29 29 19 3 3 3 3 6 26 26 23 19 13 10 10 10 10 13 10 6 6 6 6 3 0 0 0
45 45 45 42 42 35 19 13 13 26 45 45 39 42 39 39 26 23 35 23 19 13 10 6 6 23 16 16 13 6 10 6 6 6 6 3 3 6 6 6 3 0 0
45 45 45 42 42 32 16 10 3 35 39 35 32 35 35 29 16 13 26 29 26 16 10 6 6 6 6 6 0 6 0 0 0 3 3 3 3 3 3 3 3 0 0
45 45 45 45 42 35 16 6 3 32 32 35 32 26 19 16 13 10 26 32 19 23 16 16 0 0 0 0 0 3 6 0 0 3 0 0 0 3 3 3 3 3 0